• In Czech Republic
  • List of Countries
  • For 7 days
  • Water Temperature
  • Satellite Maps
  • Weather Map
  • Weather Widgets
  • user-avatar
    Login

    Hourly Weather Malaya Kuzhmara

    Today, 20 April, Friday

    Time Temperature Precipitation Wind Pressure Humidity
    00:00 +4°C° 0.7 mm 3 mps 741 mmHg 97%
    01:00 +4°C° 0.7 mm 3 mps 741 mmHg 96%
    02:00 +4°C° 0.7 mm 4 mps 741 mmHg 96%
    03:00 +3°C° 0 mm 3 mps 742 mmHg 96%
    04:00 +3°C° 0.4 mm 4 mps 742 mmHg 94%
    05:00 +3°C° 0.4 mm 4 mps 743 mmHg 93%
    06:00 +2°C° 0.4 mm 5 mps 743 mmHg 92%
    07:00 +2°C° 0 mm 5 mps 744 mmHg 85%
    08:00 +3°C° 0 mm 6 mps 744 mmHg 78%
    09:00 +4°C° 0 mm 6 mps 744 mmHg 71%
    10:00 +4°C° 0 mm 6 mps 745 mmHg 68%
    11:00 +4°C° 0 mm 6 mps 745 mmHg 65%
    12:00 +4°C° 0 mm 6 mps 746 mmHg 61%
    13:00 +4°C° 0 mm 6 mps 746 mmHg 61%
    14:00 +4°C° 0 mm 6 mps 746 mmHg 60%
    15:00 +3°C° 0 mm 6 mps 746 mmHg 59%
    16:00 +2°C° 0 mm 5 mps 747 mmHg 60%
    17:00 +1°C° 0 mm 5 mps 747 mmHg 60%
    18:00 +1°C° 0 mm 5 mps 748 mmHg 61%
    19:00 0°C° 0 mm 4 mps 748 mmHg 64%
    20:00 0°C° 0 mm 3 mps 748 mmHg 67%
    21:00 -1°C° 0 mm 3 mps 748 mmHg 69%
    22:00 -1°C° 0 mm 3 mps 748 mmHg 70%
    23:00 -2°C° 0 mm 2 mps 748 mmHg 70%

    Tomorrow, 21 April, Saturday

    Time Temperature Precipitation Wind Pressure Humidity
    00:00 -2°C° 0 mm 2 mps 748 mmHg 70%
    01:00 -2°C° 0 mm 2 mps 748 mmHg 73%
    02:00 -1°C° 0 mm 1 mps 748 mmHg 75%
    03:00 -2°C° 0 mm 1 mps 748 mmHg 77%
    04:00 -1°C° 0 mm 1 mps 748 mmHg 74%
    05:00 -1°C° 0 mm 1 mps 748 mmHg 71%
    06:00 -2°C° 0 mm 0 mps 748 mmHg 69%
    07:00 +1°C° 0 mm 1 mps 747 mmHg 62%
    08:00 +2°C° 0 mm 1 mps 747 mmHg 54%
    09:00 +2°C° 0 mm 2 mps 747 mmHg 47%
    10:00 +2°C° 0 mm 3 mps 746 mmHg 46%
    11:00 +3°C° 0 mm 3 mps 745 mmHg 44%
    12:00 +4°C° 0 mm 4 mps 744 mmHg 43%
    13:00 +4°C° 0.1 mm 4 mps 744 mmHg 46%
    14:00 +3°C° 0.1 mm 5 mps 743 mmHg 49%
    15:00 +3°C° 0.1 mm 5 mps 742 mmHg 52%
    16:00 +2°C° 0.3 mm 5 mps 741 mmHg 57%
    17:00 +2°C° 0.3 mm 5 mps 740 mmHg 61%
    18:00 +1°C° 0.3 mm 5 mps 739 mmHg 66%
    19:00 +2°C° 0.5 mm 6 mps 738 mmHg 68%
    20:00 +2°C° 0.5 mm 7 mps 737 mmHg 70%
    21:00 +2°C° 0.5 mm 7 mps 735 mmHg 72%
    22:00 +2°C° 0.4 mm 8 mps 734 mmHg 75%
    23:00 +2°C° 0.4 mm 8 mps 732 mmHg 79%

    Day after tomorrow, 22 April, Sunday

    Time Temperature Precipitation Wind Pressure Humidity
    00:00 +2°C° 0.4 mm 8 mps 731 mmHg 82%
    01:00 +4°C° 1.2 mm 8 mps 730 mmHg 83%
    02:00 +4°C° 1.2 mm 8 mps 729 mmHg 85%
    03:00 +5°C° 1.2 mm 8 mps 728 mmHg 87%
    04:00 +5°C° 1 mm 7 mps 728 mmHg 89%
    05:00 +5°C° 1 mm 7 mps 728 mmHg 90%
    06:00 +5°C° 1 mm 6 mps 727 mmHg 92%
    07:00 +5°C° 0.3 mm 6 mps 727 mmHg 86%
    08:00 +7°C° 0.3 mm 5 mps 727 mmHg 81%
    09:00 +7°C° 0.3 mm 5 mps 728 mmHg 75%
    10:00 +7°C° 0.1 mm 5 mps 728 mmHg 73%
    11:00 +7°C° 0.1 mm 6 mps 728 mmHg 71%
    12:00 +7°C° 0.1 mm 6 mps 728 mmHg 68%
    13:00 +7°C° 0.2 mm 6 mps 728 mmHg 68%
    14:00 +7°C° 0.2 mm 6 mps 728 mmHg 67%
    15:00 +8°C° 0.2 mm 6 mps 728 mmHg 67%
    16:00 +7°C° 0.2 mm 6 mps 729 mmHg 70%
    17:00 +5°C° 0.2 mm 6 mps 729 mmHg 74%
    18:00 +5°C° 0.2 mm 5 mps 729 mmHg 77%
    19:00 +3°C° 0.1 mm 5 mps 730 mmHg 79%
    20:00 +2°C° 0.1 mm 5 mps 730 mmHg 82%
    21:00 +1°C° 0.1 mm 5 mps 730 mmHg 84%
    22:00 +1°C° 0.1 mm 5 mps 731 mmHg 85%
    23:00 0°C° 0.1 mm 5 mps 731 mmHg 86%

    23 April, Monday

    Time Temperature Precipitation Wind Pressure Humidity
    00:00 0°C° 0.1 mm 4 mps 731 mmHg 87%
    01:00 0°C° 0.2 mm 4 mps 731 mmHg 88%
    02:00 0°C° 0.2 mm 4 mps 732 mmHg 89%
    03:00 0°C° 0.2 mm 4 mps 732 mmHg 90%
    04:00 0°C° 0.2 mm 5 mps 732 mmHg 90%
    05:00 -1°C° 0.2 mm 5 mps 733 mmHg 90%
    06:00 -1°C° 0.2 mm 5 mps 733 mmHg 89%
    07:00 -1°C° 0.2 mm 5 mps 734 mmHg 88%
    08:00 0°C° 0.2 mm 5 mps 734 mmHg 87%
    09:00 0°C° 0.2 mm 5 mps 735 mmHg 86%
    10:00 0°C° 0.3 mm 5 mps 736 mmHg 84%
    11:00 0°C° 0.3 mm 5 mps 736 mmHg 83%
    12:00 0°C° 0.3 mm 5 mps 737 mmHg 81%
    13:00 0°C° 0.1 mm 5 mps 737 mmHg 80%
    14:00 +1°C° 0.1 mm 5 mps 738 mmHg 80%
    15:00 +1°C° 0.1 mm 5 mps 739 mmHg 79%
    16:00 0°C° 0.1 mm 5 mps 739 mmHg 80%
    17:00 0°C° 0.1 mm 5 mps 740 mmHg 81%
    18:00 0°C° 0.1 mm 4 mps 740 mmHg 82%
    19:00 -1°C° 0.1 mm 4 mps 741 mmHg 84%
    20:00 -1°C° 0.1 mm 4 mps 741 mmHg 86%
    21:00 -1°C° 0.1 mm 4 mps 742 mmHg 87%
    22:00 -2°C° 0 mm 4 mps 742 mmHg 88%
    23:00 -2°C° 0 mm 4 mps 742 mmHg 88%

    24 April, Tuesday

    Time Temperature Precipitation Wind Pressure Humidity
    00:00 -2°C° 0 mm 4 mps 742 mmHg 88%
    01:00 -2°C° 0 mm 4 mps 743 mmHg 88%
    02:00 -3°C° 0 mm 4 mps 743 mmHg 88%
    03:00 -3°C° 0 mm 4 mps 743 mmHg 88%
    04:00 -3°C° 0 mm 4 mps 744 mmHg 87%
    05:00 -5°C° 0 mm 5 mps 744 mmHg 86%
    06:00 -5°C° 0 mm 5 mps 745 mmHg 85%
    07:00 -4°C° 0 mm 5 mps 745 mmHg 79%
    08:00 -2°C° 0 mm 5 mps 745 mmHg 73%
    09:00 -1°C° 0 mm 5 mps 745 mmHg 68%
    10:00 0°C° 0 mm 5 mps 746 mmHg 64%
    11:00 +1°C° 0 mm 5 mps 746 mmHg 60%
    12:00 +2°C° 0 mm 5 mps 746 mmHg 57%
    13:00 +2°C° 0 mm 5 mps 747 mmHg 57%
    14:00 +2°C° 0 mm 5 mps 747 mmHg 58%
    15:00 +2°C° 0 mm 5 mps 747 mmHg 58%
    16:00 +1°C° 0 mm 5 mps 747 mmHg 61%
    17:00 +1°C° 0 mm 4 mps 748 mmHg 63%
    18:00 0°C° 0 mm 4 mps 748 mmHg 66%
    19:00 0°C° 0 mm 3 mps 748 mmHg 70%
    20:00 0°C° 0 mm 3 mps 748 mmHg 74%
    21:00 -1°C° 0 mm 2 mps 749 mmHg 78%
    22:00 -2°C° 0 mm 2 mps 749 mmHg 79%
    23:00 -2°C° 0 mm 2 mps 749 mmHg 80%

    25 April, Wednesday

    Time Temperature Precipitation Wind Pressure Humidity
    00:00 -2°C° 0 mm 2 mps 749 mmHg 82%
    01:00 -3°C° 0 mm 2 mps 749 mmHg 82%
    02:00 -3°C° 0 mm 2 mps 750 mmHg 83%
    03:00 -3°C° 0 mm 2 mps 750 mmHg 84%
    04:00 -1°C° 0 mm 1 mps 750 mmHg 79%
    05:00 0°C° 0 mm 1 mps 750 mmHg 75%
    06:00 +1°C° 0 mm 1 mps 750 mmHg 71%
    07:00 +2°C° 0 mm 1 mps 751 mmHg 63%
    08:00 +4°C° 0 mm 1 mps 751 mmHg 55%
    09:00 +5°C° 0 mm 1 mps 751 mmHg 46%
    10:00 +6°C° 0 mm 1 mps 751 mmHg 45%
    11:00 +7°C° 0 mm 1 mps 751 mmHg 43%
    12:00 +6°C° 0 mm 2 mps 751 mmHg 42%
    13:00 +7°C° 0 mm 2 mps 751 mmHg 41%
    14:00 +7°C° 0 mm 2 mps 751 mmHg 41%
    15:00 +8°C° 0 mm 2 mps 751 mmHg 41%
    16:00 +7°C° 0 mm 2 mps 750 mmHg 45%
    17:00 +7°C° 0 mm 2 mps 750 mmHg 50%
    18:00 +6°C° 0 mm 2 mps 750 mmHg 54%
    19:00 +5°C° 0 mm 2 mps 750 mmHg 58%
    20:00 +2°C° 0 mm 3 mps 750 mmHg 62%
    21:00 +1°C° 0 mm 3 mps 750 mmHg 67%
    22:00 0°C° 0 mm 4 mps 750 mmHg 67%
    23:00 0°C° 0 mm 4 mps 749 mmHg 67%
    Show more